Regional Weather Roundup
Issued by NWS

Home | Current Version | Previous Version | Text Only | Print | Product List | Glossary On
Versions: 1 2 3 4 5 6 7 8 9 10 11 12 13 14 15 16 17 18 19 20 21 22 23 24 25 26 27 28 29 30 31 32 33 34 35 36 37 38 39 40 41 42 43 44 45 46 47 48 49 50
000
ASUS44 KFWD 011215
RWRTX
NORTH TEXAS HOURLY WEATHER ROUNDUP
NATIONAL WEATHER SERVICE FORT WORTH TX
700 AM CDT SUN MAY 01 2016

NOTE: "FAIR" INDICATES FEW OR NO CLOUDS BELOW 12,000 FEET WITH NO
SIGNIFICANT WEATHER AND/OR OBSTRUCTIONS TO VISIBILITY.

TXZ118-119-011300-
DALLAS/FORT WORTH METROPLEX

CITY           SKY/WX    TMP DP  RH WIND       PRES   REMARKS
DFW AIRPORT    PTCLDY    58  49  72 N12       29.94S
6HR MIN TEMP:  58; 6HR MAX TEMP:  65;

DALLAS LOVE    PTCLDY    60  47  61 N12       29.94R
6HR MIN TEMP:  60; 6HR MAX TEMP:  64;

FTW MEACHAM    CLEAR     57  49  74 N14       29.95R
6HR MIN TEMP:  57; 6HR MAX TEMP:  63;

DAL-EXECUTIVE  CLEAR     58  50  75 N8        29.94R
6HR MIN TEMP:  58; 6HR MAX TEMP:  64;

FTW-ALLIANCE   PTCLDY    56  48  74 N8        29.96R
6HR MIN TEMP:  56; 6HR MAX TEMP:  61;

FTW-NAS-JRB    MOCLDY    58  49  72 N12       29.96R
6HR MIN TEMP:  58; 6HR MAX TEMP:  65;

FTW-SPINKS     PTCLDY    55  50  82 N6        29.96R
ARLINGTON      CLEAR     62  48  60 N15       29.94R
6HR MIN TEMP:  59; 6HR MAX TEMP:  65;

GRAND PRAIRIE  CLEAR     57  48  72 N12G20    29.95S
ADDISON        CLEAR     59  50  72 MISG      29.96R
MESQUITE       CLEAR     59  54  82 NW12      29.94R
LANCASTER      CLEAR     59  53  83 N7        29.94R
6HR MIN TEMP:  59; 6HR MAX TEMP:  64;

$$

TXZ091>094-102>105-117-120-121-131>134-011300-
NORTH CENTRAL TEXAS

CITY           SKY/WX    TMP DP  RH WIND       PRES   REMARKS
SHRMAN/DENISON CLEAR     51  44  78 N9        30.00R
6HR MIN TEMP:  50; 6HR MAX TEMP:  57;

GAINESVILLE    CLEAR     51  46  82 N14       30.00S
6HR MIN TEMP:  51; 6HR MAX TEMP:  58;

BOWIE          PTCLDY    50  42  74 N15G24    30.01S
6HR MIN TEMP:  50; 6HR MAX TEMP:  58;

BRIDGEPORT     CLEAR     54  46  74 N7G16     30.02R
6HR MIN TEMP:  54; 6HR MAX TEMP:  58;

DECATUR        CLEAR     53  45  75 N8G18     29.98R
6HR MIN TEMP:  53; 6HR MAX TEMP:  59;

DENTON         CLEAR     54  47  77 N9        29.97R
6HR MIN TEMP:  53; 6HR MAX TEMP:  59;

MCKINNEY       CLEAR     55  50  83 N10       29.96R
6HR MIN TEMP:  55; 6HR MAX TEMP:  60;

GREENVILLE     CLEAR     55  54  94 N8        29.95R
ROCKWALL       CLEAR     56  53  89 N8G16     29.93R
6HR MIN TEMP:  56; 6HR MAX TEMP:  63;

TERRELL        CLEAR     59  56  89 N9        29.94R
6HR MIN TEMP:  59; 6HR MAX TEMP:  62;

WAXAHACHIE     CLOUDY    60  57  91 N8        29.95R
6HR MIN TEMP:  57; 6HR MAX TEMP:  63;

CLEBURNE       MOCLDY    57  55  94 N10       29.96R
GRANBURY       CLEAR     57  50  77 NW3       29.98R
6HR MIN TEMP:  56; 6HR MAX TEMP:  60;

$$

TXZ083>090-098>101-113>116-127>130-139>142-154-155-011300-
WESTERN NORTH TEXAS

CITY           SKY/WX    TMP DP  RH WIND       PRES   REMARKS
WICHITA FALLS  PTCLDY    48  39  71 N16       30.04F
6HR MIN TEMP:  48; 6HR MAX TEMP:  55;

WF-KICKAPOO    PTCLDY    52  38  59 N16G22    30.06S
6HR MIN TEMP:  52; 6HR MAX TEMP:  60;

VERNON         CLEAR     47  33  58 N8        30.08S
6HR MIN TEMP:  47; 6HR MAX TEMP:  65;

ABILENE        PTCLDY    51  39  63 N15G25    30.01R
6HR MIN TEMP:  51; 6HR MAX TEMP:  61;

ABILENE-DYESS  CLEAR     51  41  68 N17G28    30.01R
6HR MIN TEMP:  51; 6HR MAX TEMP:  60;

BRECKENRIDGE   CLEAR     54  43  66 N12G18    30.01R HAZE
6HR MIN TEMP:  54; 6HR MAX TEMP:  60;

GRAHAM         PTCLDY    51  42  69 N16G24    30.01R
6HR MIN TEMP:  51; 6HR MAX TEMP:  57;

MINERAL WELLS  CLEAR     54  47  77 N13G22    29.98R
6HR MIN TEMP:  54; 6HR MAX TEMP:  60;

STEPHENVILLE   CLEAR     54  49  82 N6        29.99R
6HR MIN TEMP:  54; 6HR MAX TEMP:  61;

COMANCHE       CLEAR     53  53 100 N9        29.97R
6HR MIN TEMP:  53; 6HR MAX TEMP:  60;

BROWNWOOD      CLEAR     57  48  72 N10G20    29.96R
COLEMAN        CLEAR     55  47  75 NE12      29.98R
6HR MIN TEMP:  55; 6HR MAX TEMP:  60;

$$

TXZ143>147-156>162-174-175-011300-
CENTRAL TEXAS

CITY           SKY/WX    TMP DP  RH WIND       PRES   REMARKS
WACO           CLEAR     59  58  96 N7        29.90R FOG
6HR MIN TEMP:  59; 6HR MAX TEMP:  63;

WACO-TSTC      CLEAR     59  59 100 N7        29.89
WACO-MCGREGOR  CLEAR     59  59 100 N7        29.90R
6HR MIN TEMP:  59; 6HR MAX TEMP:  65;

HILLSBORO      MOCLDY    59  57  96 N12G17    29.92R
6HR MIN TEMP:  57; 6HR MAX TEMP:  64;

CORSICANA      CLEAR     62  59  90 N6        29.91R
6HR MIN TEMP:  62; 6HR MAX TEMP:  66;

MEXIA          CLEAR     61  61  98 N6        29.88R
6HR MIN TEMP:  61; 6HR MAX TEMP:  66;

HEARNE         CLEAR     64  63  96 CALM      29.85S
6HR MIN TEMP:  64; 6HR MAX TEMP:  69;

CAMERON        CLEAR     63  62  97 N5        29.86R
6HR MIN TEMP:  62; 6HR MAX TEMP:  68;

TEMPLE         PTCLDY    62  60  93 N6        29.89R
6HR MIN TEMP:  60; 6HR MAX TEMP:  65;

KILLEEN        PTCLDY    58  57  98 N9        29.88R
6HR MIN TEMP:  58; 6HR MAX TEMP:  65;

KILLEEN-SKYLRK CLEAR     61  60  97 N9        29.89R
6HR MIN TEMP:  60; 6HR MAX TEMP:  67;

FORT HOOD      PTCLDY    60  59  98 N9        29.87R
6HR MIN TEMP:  59; 6HR MAX TEMP:  66;

GATESVILLE     CLEAR     59  57  94 MISG      29.93R
HAMILTON       CLEAR     56  56 100 N10       29.94R
6HR MIN TEMP:  56; 6HR MAX TEMP:  63;

LAMPASAS       CLEAR     58  56  94 N3        29.90R
6HR MIN TEMP:  58; 6HR MAX TEMP:  63;

$$

TXZ095>097-106>112-122>126-135>138-148>153-164>167-011300-
EAST TEXAS

CITY           SKY/WX    TMP DP  RH WIND       PRES   REMARKS
PARIS          CLEAR     55  46  71 N10       29.93R
6HR MIN TEMP:  55; 6HR MAX TEMP:  63;

SULPHUR SPRNGS CLEAR     60  57  92 N12       29.96R
6HR MIN TEMP:  60; 6HR MAX TEMP:  65;

MOUNT PLEASANT CLEAR     60  58  93 N7        29.91R
6HR MIN TEMP:  60; 6HR MAX TEMP:  67;

MINEOLA        CLEAR     61  57  88 N7        29.91R
TYLER          CLEAR     62  58  86 N8        29.88R
6HR MIN TEMP:  62; 6HR MAX TEMP:  68;

LONGVIEW       PTCLDY    63  60  90 N7        29.87R
6HR MIN TEMP:  62; 6HR MAX TEMP:  69;

MARSHALL       CLEAR     63  60  91 N6        29.90R
6HR MIN TEMP:  63; 6HR MAX TEMP:  70;

ATHENS         CLEAR     61  59  94 N9        29.88R
PALESTINE      CLEAR     64  60  90 N8        29.87S
JACKSONVILLE   CLEAR     62  61  95 NE6       29.89R
HENDERSON      CLEAR     63  60  90 NE5       29.89R
6HR MIN TEMP:  63; 6HR MAX TEMP:  69;

CENTER         FAIR      67  66  95 CALM      29.86R
6HR MIN TEMP:  67; 6HR MAX TEMP:  74;

NACOGDOCHES    CLEAR     66  63  88 NE3       29.85R
6HR MIN TEMP:  64; 6HR MAX TEMP:  72;

LUFKIN         CLEAR     67  64  90 N3        29.85R
6HR MIN TEMP:  67; 6HR MAX TEMP:  71;

$$

SUPPLEMENTAL OBSERVATIONS (CENTRAL)

CITY           SKY/WX    TMP DP  RH WIND       PRES   REMARKS
LAKE TEXOMA      N/A     57  48  72 N16         N/A
CADDO GRASSLND   N/A     52  50  93 CALM        N/A
PAT MAYSE LAKE   N/A     54  52  94 NW3         N/A
GREENVILLE       N/A     57  54  88 N8          N/A
CEDAR HILL       N/A     57  52  82 NE6         N/A
ATHENS           N/A     61  57  88 N1          N/A
LAKE LIMESTONE   N/A     64  59  82 N12         N/A
MCGREGOR         N/A     61  57  88 NE8         N/A
$C1F1C2F2C3F3C4F4C5F5C6F6C7F7C8F8C9!



USA.gov is the U.S. government's official web portal to all federal, state and local government web resources and services.